Regional Weather Roundup
Issued by NWS

Home | Current Version | Previous Version | Graphics & Text | Print | Product List | Glossary On
Versions: 1 2 3 4 5 6 7 8 9 10 11 12 13 14 15 16 17 18 19 20 21 22 23 24 25 26 27 28 29 30 31 32 33 34 35 36 37 38 39 40 41 42 43 44 45 46 47 48 49 50
000
ASUS43 KTOP 291208
RWRKS

WEATHER ROUNDUP FOR KANSAS
NATIONAL WEATHER SERVICE GOODLAND KS
700 AM CDT SUN MAY 29 2016

NOTE:  "FAIR" INDICATES FEW OR NO CLOUDS BELOW 12,000 FEET WITH NO
SIGNIFICANT WEATHER AND/OR OBSTRUCTIONS TO VISIBILITY.

KSZ001>006-013>018-027>032-041>047-291300-
NORTHWEST KANSAS

CITY           SKY/WX    TMP DP  RH WIND       PRES   REMARKS
GOODLAND       CLEAR     49  46  90 SW3       30.12R
6HR MIN TEMP:  47; 6HR MAX TEMP:  58;

HAYS           MOCLDY    61  48  63 SE8       30.10F
HILL CITY      CLOUDY    55  52  89 CALM      30.11R
6HR MIN TEMP:  52; 6HR MAX TEMP:  59;

RUSSELL        CLEAR     58  55  90 W17       30.11R
6HR MIN TEMP:  56; 6HR MAX TEMP:  61;

$$

KSZ061>065-074>080-084>089-291300-
SOUTHWEST KANSAS

CITY           SKY/WX    TMP DP  RH WIND       PRES   REMARKS
DODGE CITY     CLEAR     59  55  87 S6        30.13R
6HR MIN TEMP:  56; 6HR MAX TEMP:  63; 6HR PCP: TRACE;

ELKHART          N/A     56  48  74 SW3         N/A
GARDEN CITY    CLEAR     56  49  77 S5        30.13R
6HR MIN TEMP:  55; 6HR MAX TEMP:  60;

GREAT BEND     CLOUDY    63  54  72 S15       30.10R
LIBERAL        CLOUDY    63  52  67 SE6       30.14S
PRATT          MOCLDY    59  53  78 SE7       30.11S
6HR MIN TEMP:  58; 6HR MAX TEMP:  64;

$$

KSZ066>073-081>083-090>101-291300-
SOUTHEAST KANSAS

CITY           SKY/WX    TMP DP  RH WIND       PRES   REMARKS
CHANUTE        CLEAR     62  60  93 CALM      30.10R FOG
6HR MIN TEMP:  60; 6HR MAX TEMP:  64;

COFFEYVILLE    CLEAR     63  62  97 CALM      30.09R
6HR MIN TEMP:  62; 6HR MAX TEMP:  66;

HUTCHINSON     CLEAR     60  57  89 CALM      30.10R
6HR MIN TEMP:  57; 6HR MAX TEMP:  63;

MEDICINE LODGE   N/A     60  55  83 CALM      30.11R
NEWTON         CLEAR     61  54  77 S7        30.13R
PARSONS        MOCLDY    61  60  97 CALM      30.11R FOG
6HR MIN TEMP:  59; 6HR MAX TEMP:  63;

WICHITA INTL   PTCLDY    63  58  83 CALM      30.10R
6HR MIN TEMP:  60; 6HR MAX TEMP:  67;

WICHITA JABRA  CLEAR     62  60  93 S5        30.10R
6HR MIN TEMP:  58; 6HR MAX TEMP:  64;

WINFIELD       CLEAR     62  61  96 CALM      30.11R
6HR MIN TEMP:  59; 6HR MAX TEMP:  66;

$$

KSZ007>012-019>026-033>040-048>060-102>105-291300-
NORTHEAST KANSAS

CITY           SKY/WX    TMP DP  RH WIND       PRES   REMARKS
CONCORDIA      CLOUDY    61  57  87 CALM      30.08R
6HR MIN TEMP:  58; 6HR MAX TEMP:  64;

EMPORIA        CLEAR     61  58  90 S8        30.09R
6HR MIN TEMP:  58; 6HR MAX TEMP:  64;

LAWRENCE       MOSUNNY   60  59  96 CALM      30.07R
6HR MIN TEMP:  55; 6HR MAX TEMP:  60;

MANHATTAN      CLEAR     60  57  89 CALM      30.08R
6HR MIN TEMP:  55; 6HR MAX TEMP:  60;

MARYSVILLE     PTCLDY    57  57 100 S3        30.07S
OLATHE IND     SUNNY     60  59  96 S5        30.08S
6HR MIN TEMP:  57; 6HR MAX TEMP:  63;

OLATHE EXE     SUNNY     60  59  96 S3        30.08R
6HR MIN TEMP:  58; 6HR MAX TEMP:  62;

SALINA         CLEAR     60  57  89 S7        30.09R
6HR MIN TEMP:  56; 6HR MAX TEMP:  62;

TOPEKA BILLARD CLEAR     61  58  90 N5        30.07R
6HR MIN TEMP:  58; 6HR MAX TEMP:  62;

TOPEKA FORBES  CLEAR     63  59  87 SW5       30.07R
6HR MIN TEMP:  60; 6HR MAX TEMP:  63;

$$




USA.gov is the U.S. government's official web portal to all federal, state and local government web resources and services.